星链-35077(STARLINK-35077)

导读 | 豆包AI

STARLINK-35077是美国SpaceX公司于2025年9月6日发射的星链低轨通信卫星,归属全球星链互联网星座组网。该卫星运行于近地轨道,采用先进相控阵天线与激光星间链路技术,可提供低时延高速宽带服务,能为偏远地区补齐网络覆盖短板,也为终端直连通信提供支撑,助力星链实现全球无缝网络覆盖。

基本信息
目录编号:
65529
目录名称:
STARLINK-35077
国际标识:
2025-200K
轨道中心:
EARTH
卫星名称:
星链-35077
卫星全名:
星链-35077(STARLINK-35077)
卫星状态:
在轨 (已飞行189 天)
发射日期:
2025-09-06 UTC
国别 :
美国 (US)
星等 :
--
轨道信息
数据来源 国际轨道数据
星历时间: 2026-03-13T12:15:02+0800
1天前
查看轨道信息
半长轴: 6927.612km
偏心率: 0.0001172
轨道倾角: 97.603°
近地点辐角 124.944°
升交点赤经 143.205°
平近点角 235.190°
近地点: 548.663km
远地点: 550.287km
周期: 95.639分钟
每日圈数: 15.056618
详细信息
固有亮度:
5
最大亮度:
2.5
卫星平台:
Starlink V1.0
覆盖范围:
全球
运营商:
太空探索技术公司
运营商所在国:
美国
制造商(研发单位):
太空探索技术公司
制造商所在国:
美国
使用方式:
暂无
卫星简介
Starlink 计划是 SpaceX 推出的全球卫星互联网项目,通过发射低轨道卫星,为全球尤其是偏远地区提供高速、低延迟的互联网服务。自 2019 年起,Starlink 已部署数千颗卫星,旨在缩小全球数字鸿沟,推动互联网普及。该项目还为军事、航空等行业提供通信支持,带来广泛经济效益。
2D轨道图
3D轨道图
轨道高度分析图
轨道倾角分析图
轨道综合分析图
查看轨道综合分析图